This is the latest recevied weather packets stored in our database for station/object SV9TNF-52. If no packets are shown the sender has not sent any weather packets the latest 10 day(s).
| Time | Temp. | Humidity | Pressure | Rain* | Wind** | Luminosity | Snow |
|---|---|---|---|---|---|---|---|
| 1787968898 | 26.67° C | 72% | 1020 hPa | 0 mm | 8.94 m/s, 88° | - | - |
| 1787968598 | 26.11° C | 72% | 1020 hPa | 0 mm | 4.47 m/s, 74° | - | - |
| 1787968298 | 26.11° C | 71% | 1020 hPa | 0 mm | 4.02 m/s, 93° | - | - |
| 1787967998 | 25.56° C | 71% | 1020 hPa | 0 mm | 7.15 m/s, 130° | - | - |
| 1787967698 | 25.56° C | 71% | 1020 hPa | 0 mm | 1.79 m/s, 200° | - | - |
| 1787967397 | 26.67° C | 71% | 1020 hPa | 0 mm | 2.24 m/s, 125° | - | - |
| 1787967097 | 27.22° C | 71% | 1020 hPa | 0 mm | 5.81 m/s, 101° | - | - |
| 1787966797 | 27.22° C | 71% | 1020 hPa | 0 mm | 4.92 m/s, 83° | - | - |
| 1787966497 | 27.22° C | 70% | 1020 hPa | 0 mm | 6.71 m/s, 111° | - | - |
| 1787966197 | 27.22° C | 70% | 1020 hPa | 0 mm | 6.26 m/s, 75° | - | - |
| 1787965897 | 27.22° C | 69% | 1020 hPa | 0 mm | 7.6 m/s, 113° | - | - |
| 1787965597 | 27.22° C | 69% | 1020 hPa | 0 mm | 4.92 m/s, 111° | - | - |
| 1787965297 | 26.67° C | 68% | 1020 hPa | 0 mm | 2.68 m/s, 114° | - | - |
| 1787964997 | 26.67° C | 67% | 1020 hPa | 0 mm | 0.89 m/s, 91° | - | - |
| 1787964699 | 26.67° C | 66% | 1020 hPa | 0 mm | 1.79 m/s, 92° | - | - |
| 1787964397 | 26.67° C | 66% | 1020 hPa | 0 mm | 3.58 m/s, 64° | - | - |
| 1787964096 | 26.67° C | 67% | 1020 hPa | 0 mm | 1.79 m/s, 98° | - | - |
| 1787963797 | 26.67° C | 68% | 1020 hPa | 0 mm | 5.81 m/s, 78° | - | - |
| 1787963496 | 26.67° C | 68% | 1020 hPa | 0 mm | 3.13 m/s, 111° | - | - |
| 1787963196 | 26.11° C | 70% | 1020 hPa | 0 mm | 4.92 m/s, 73° | - | - |
| 1787962896 | 26.67° C | 71% | 1020 hPa | 0 mm | 1.34 m/s, 83° | - | - |
| 1787962596 | 26.67° C | 71% | 1020 hPa | 0 mm | 4.02 m/s, 76° | - | - |
| 1787962296 | 26.11° C | 71% | 1020 hPa | 0 mm | 2.24 m/s, 71° | - | - |
| 1787961996 | 25.56° C | 70% | 1020 hPa | 0 mm | 2.68 m/s, 190° | - | - |
| 1787961696 | 25.56° C | 70% | 1020 hPa | 0 mm | 0.89 m/s, 135° | - | - |
* Rain latest hour (hover to see other rain measurements)
** Current wind speed in m/s (hover to see current wind gust speed)